Van Nuys, CA

1:18 AM PST on December 15, 2017 (GMT -0800)
Van Nuys

Weather History for KVNY - February, 2014

Change the Weather History Date:

Wednesday, February 12, 2014

  Actual Average Record
Temperature  
Mean Temperature 66 °F -  
Max Temperature 84 °F 63 °F 87 °F (2016)
Min Temperature 48 °F 44 °F 34 °F (2013)
Cooling Degree Days 1    
Growing Degree Days 16 (Base 50)    
Moisture  
Dew Point 31 °F    
Average Humidity 35    
Maximum Humidity 66    
Minimum Humidity 7    
Precipitation  
Precipitation 0.00 in - - ()
Sea Level Pressure  
Sea Level Pressure 30.07 in    
Wind  
Wind Speed 1 mph (ESE)    
Max Wind Speed 7 mph    
Max Gust Speed -    
Visibility 10 miles    
Events      
Averages and records for this station are not official NWS values.
T = Trace of Precipitation, MM = Missing Value Source: NWS Daily Summary

Daily Weather History Graph

Daily Weather History Graph

Search for Another Location

Airport or City:

Trip Planner

Search our weather history database for the weather conditions in past years. The results will help you decide how hot, cold, wet, or windy it might be!

Date:

Astronomy

Feb. 12, 2014 Rise Set
Actual Time 6:41 AM PST 5:35 PM PST
Civil Twilight 6:16 AM PST 6:00 PM PST
Nautical Twilight 5:46 AM PST 6:30 PM PST
Astronomical Twilight 5:17 AM PST 6:59 PM PST
Moon 3:54 PM PST (2/12) 4:59 AM PST (2/12)
Length of Visible Light 11h 44m
Length of Day
10h 53m
Waxing Gibbous, 96% of the Moon is Illuminated
Feb 12
Waxing Gibbous
Feb 14
Full
Feb 22
Last Quarter
Mar 1
New
Mar 8
First Quarter

Hourly Weather History & Observations

Time (PST) Temp. Dew Point Humidity Pressure Visibility Wind Dir Wind Speed Gust Speed Precip Events Conditions
12:51 AM 54.0 °F 39.9 °F 59% 30.08 in 10.0 mi NNW 3.5 mph - N/A   Clear
1:51 AM 53.1 °F 39.9 °F 61% 30.10 in 10.0 mi Calm Calm - N/A   Clear
2:51 AM 53.1 °F 41.0 °F 64% 30.09 in 10.0 mi Calm Calm - N/A   Clear
3:51 AM 50.0 °F 39.0 °F 66% 30.09 in 10.0 mi Calm Calm - N/A   Clear
4:51 AM 50.0 °F 37.9 °F 63% 30.09 in 10.0 mi Calm Calm - N/A   Clear
5:51 AM 48.9 °F 37.0 °F 64% 30.09 in 10.0 mi North 3.5 mph - N/A   Scattered Clouds
6:51 AM 50.0 °F 35.1 °F 57% 30.11 in 10.0 mi Calm Calm - N/A   Clear
7:51 AM 54.0 °F 35.1 °F 49% 30.13 in 10.0 mi Calm Calm - N/A   Clear
8:51 AM 62.1 °F 33.1 °F 34% 30.13 in 10.0 mi Calm Calm - N/A   Clear
9:51 AM 69.1 °F 32.0 °F 25% 30.13 in 10.0 mi Calm Calm - N/A   Clear
10:51 AM 75.9 °F 19.9 °F 12% 30.12 in 10.0 mi Calm Calm - N/A   Clear
11:51 AM 79.0 °F 23.0 °F 13% 30.09 in 10.0 mi Calm Calm - N/A   Clear
12:51 PM 82.9 °F 14.0 °F 8% 30.06 in 10.0 mi Calm Calm - N/A   Clear
1:51 PM 84.0 °F 14.0 °F 7% 30.03 in 10.0 mi Variable 4.6 mph - N/A   Mostly Cloudy
2:51 PM 82.9 °F 27.0 °F 13% 30.02 in 10.0 mi SSE 6.9 mph - N/A   Clear
3:51 PM 81.0 °F 27.0 °F 14% 30.01 in 10.0 mi SSE 3.5 mph - 0.00 in   Clear
4:51 PM 81.0 °F 19.9 °F 10% 30.01 in 10.0 mi Variable 3.5 mph - N/A   Clear
5:51 PM 75.0 °F 30.0 °F 19% 30.03 in 10.0 mi SE 3.5 mph - N/A   Scattered Clouds
6:51 PM 71.1 °F 32.0 °F 24% 30.04 in 10.0 mi Calm Calm - N/A   Clear
7:51 PM 68.0 °F 32.0 °F 26% 30.04 in 10.0 mi Calm Calm - N/A   Clear
8:51 PM 64.0 °F 35.1 °F 34% 30.05 in 10.0 mi Calm Calm - N/A   Clear
9:51 PM 62.1 °F 36.0 °F 38% 30.05 in 10.0 mi Calm Calm - N/A   Clear
10:51 PM 60.1 °F 35.1 °F 39% 30.05 in 10.0 mi Calm Calm - N/A   Clear
11:51 PM 57.9 °F 34.0 °F 41% 30.05 in 10.0 mi Calm Calm - N/A   Clear